Location: Navajo
(48.7922°N, 105.0603°W)
Time: 04:36:46
(UTC+00:00)

KKS-1 - Pass Details

Date: 30 June 2022
Orbit: 634 x 649 km, 98.2° (Epoch: 18 August)

Event Time Altitude Azimuth Distance (km) Brightness Sun altitude
Rises 05:02:38 0° 15° (NNE) 2,980 ? -13.1°
Reaches altitude 10° 05:04:52 10° 17° (NNE) 2,063 ? -13.3°
Maximum altitude 05:09:22 74° 103° (ESE) 680 ? -13.6°
Enters shadow 05:12:50 17° 187° (S) 1,644 ? -13.9°
